{"data":{"norad_id":53029,"epoch":"2026-09-19T16:08:17.191680Z","epoch_age_seconds":140742,"freshness":"FRESH","line1":"1 53029U 22076AV  26262.67242120 -.00000370  00000+0  18818-6 0  9990","line2":"2 53029  53.1606 273.7630 0001129  75.6739 284.4389 15.34384531232530","mean_motion":15.34384531,"eccentricity":0.0001129,"inclination_deg":53.1606,"raan_deg":273.763,"arg_perigee_deg":75.6739,"mean_anomaly_deg":284.4389,"bstar":1.8818e-7,"rev_number":23253,"period_min":93.848704213768,"perigee_km":461.97688166734,"apogee_km":463.5215537753,"semimajor_km":6840.8862177213,"source":"CELESTRAK","updated_at":"2026-09-20T09:00:40.147455Z"}}